Location: Nashville
(36.1660°N, 86.7840°W)
Time: 20:22:10
(UTC-05:00)

SO-50 - Pass Details

Date: 20 May 2022
Orbit: 586 x 697 km, 64.6° (Epoch: 29 June)

Event Time Altitude Azimuth Distance (km) Brightness Sun altitude
Rises 21:36:07 0° 323° (NW) 3,079 ? -18.3°
Reaches altitude 10° 21:38:32 10° 317° (NW) 2,159 ? -18.7°
Maximum altitude 21:43:15 46° 245° (WSW) 930 ? -19.3°
Enters shadow 21:45:33 26° 188° (S) 1,329 ? -19.7°
